sat.trackr.live / text

‹ back to catalog

STARLINK-34997

NORAD 65418 · 2025-192Q

PAYLOAD ACTIVE UNKNOWN

§ Identity

Operator
Country
US
Launch date
2025-08-31
Launch site
AFETR
Launch vehicle
Mass (kg)
RCS (m²)

Purposes: comms

External: N2YO · Heavens-Above · Gunter

§ Orbital elements

Epoch: 2026-05-25T04:06:26.096832Z

Period
94.10 min
Inclination
53.1581°
Eccentricity
0.0001116
Mean motion
15.30244475 rev/d
Perigee alt
474.3 km
Apogee alt
475.8 km
Semi-major
6,853.2 km
B*
7.4407e-4
RAAN
237.1187°
Arg perigee
75.6125°
Mean anomaly
284.5000°
Rev number
4,109

§ Raw data

STARLINK-349971 65418U 25192Q   26145.17113538  .00021773  00000+0  74407-3 0  99942 65418  53.1581 237.1187 0001116  75.6125 284.5000 15.30244475 41091

JSON: /api/v1/satellites/65418 · /tle

For live sub-satellite position, see the globe view (requires WebGL).

§ Visibility from observer

Set your observer location to see the next 7 days of passes ≥ 10°. The values pass through the URL so the page stays shareable.

No JS? Fill the form by hand. The geolocation button needs JavaScript.